MST,Max TemperatureF,Mean TemperatureF,Min TemperatureF,Max Dew PointF,MeanDew PointF,Min DewpointF,Max Humidity, Mean Humidity, Min Humidity, Max Sea Level PressureIn, Mean Sea Level PressureIn, Min Sea Level PressureIn, Max VisibilityMiles, Mean VisibilityMiles, Min VisibilityMiles, Max Wind SpeedMPH, Mean Wind SpeedMPH, Max Gust SpeedMPH,PrecipitationIn, CloudCover, Events, WindDirDegrees
2013-2-1,41,34,28,30,27,22,84,72,51,30.45,30.32,30.26,10,10,10,13,7,,0.00,4,,184
2013-2-2,36,30,24,27,22,18,89,76,60,30.55,30.48,30.40,10,10,8,17,9,22,0.00,0,,90
2013-2-3,28,22,17,25,22,18,100,92,77,30.38,30.25,30.18,10,3,0,13,6,,0.00,1,Fog-Snow,212
2013-2-4,32,24,17,22,17,12,100,82,56,30.35,30.24,30.15,10,4,0,12,3,,0.00,2,Fog,128
2013-2-5,33,25,17,21,17,12,86,78,55,30.24,30.06,29.92,10,3,0,12,6,,0.00,3,Fog,345
2013-2-6,30,24,17,25,19,12,86,82,70,30.29,30.04,29.92,10,1,0,10,4,,0.00,1,Fog-Snow,185
2013-2-7,37,27,17,18,13,2,86,64,22,30.28,30.13,29.88,10,7,0,20,8,24,0.00,0,,85
2013-2-8,41,34,25,27,17,8,86,54,32,29.86,29.71,29.60,10,8,0,20,9,28,0.05,3,Snow,113
2013-2-9,30,26,22,25,22,18,86,80,69,29.90,29.72,29.65,10,6,0,16,10,,0.02,7,Rain-Snow,200
2013-2-10,28,22,15,22,19,10,86,81,69,30.08,29.91,29.84,10,6,1,12,4,,0.01,6,Snow,222
2013-2-11,26,22,17,16,11,7,74,66,47,30.33,30.18,30.01,10,10,10,16,7,,0.00,2,,132
2013-2-12,26,20,15,16,9,5,70,58,47,30.44,30.37,30.23,10,10,10,12,4,,0.00,7,Snow,122
2013-2-13,32,27,22,20,16,12,69,63,54,30.42,30.34,30.24,10,10,2,10,4,,0.00,8,,170
2013-2-14,35,30,26,21,20,18,75,66,51,30.47,30.33,30.23,10,10,9,7,3,,0.00,5,,207
2013-2-15,38,30,23,22,18,15,75,62,42,30.57,30.52,30.42,10,10,9,7,4,,0.00,3,,172
2013-2-16,39,32,24,19,16,14,73,57,36,30.51,30.33,30.04,10,10,10,16,9,,0.00,0,,105
2013-2-17,34,28,23,23,18,12,93,71,41,30.14,29.97,29.90,10,6,0,18,6,,0.00,4,Fog-Snow,248
2013-2-18,35,27,19,17,12,9,75,54,34,30.19,30.11,29.94,10,10,10,17,8,,0.00,0,,125
2013-2-19,41,34,26,18,11,4,52,39,26,29.91,29.71,29.57,10,10,10,17,12,23,0.00,2,,141
2013-2-20,38,32,26,27,22,9,100,70,30,29.78,29.68,29.54,10,7,2,16,11,,0.00,7,Snow,336
2013-2-21,33,28,23,25,19,10,93,75,39,30.09,29.90,29.77,10,7,2,12,4,,0.01,7,Snow,269
2013-2-22,32,26,21,23,19,12,93,77,51,30.18,30.06,30.00,10,6,1,18,8,,0.02,7,Snow,176
2013-2-23,33,27,17,27,21,14,93,79,48,30.05,29.85,29.68,10,4,0,23,12,30,0.20,7,Fog-Snow,260
2013-2-24,30,20,10,16,12,6,93,79,44,30.37,30.09,29.97,10,6,0,9,3,,0.00,1,Fog,218
2013-2-25,32,23,14,16,11,5,67,57,38,30.35,30.15,30.00,10,10,10,16,9,,0.00,4,Snow,123
2013-2-26,32,26,20,21,19,9,93,77,46,30.39,30.14,30.03,10,8,1,10,5,,0.00,6,Snow,324
2013-2-27,32,24,15,11,8,6,68,54,40,30.52,30.48,30.39,10,10,10,16,10,,0.00,0,,112
2013-2-28,36,27,18,23,10,6,69,49,30,30.54,30.49,30.40,10,10,10,15,9,,0.00,5,,100